Regional Weather Roundup
Issued by NWS

Home | Current Version | Previous Version | Graphics & Text | Print | Product List | Glossary On
Versions: 1 2 3 4 5 6 7 8 9 10 11 12 13 14 15 16 17 18 19 20 21 22 23 24 25 26 27 28 29 30 31 32 33 34 35 36 37 38 39 40 41 42 43 44 45 46 47 48 49 50
000
ASUS43 KMPX 291910
RWRMN
WEATHER ROUNDUP FOR MINNESOTA
NATIONAL WEATHER SERVICE TWIN CITIES/CHANHASSEN MN
200 PM CDT MON JUN 29 2015


NOTE: "FAIR" INDICATES FEW OR NO CLOUDS BELOW 12,000 FEET WITH NO
SIGNIFICANT WEATHER AND/OR OBSTRUCTIONS TO VISIBILITY. N/A MEANS
CURRENT SKY AND/OR WEATHER CONDITIONS ARE NOT AVAILABLE.

MNZ060>063-068>070-292000-
   Twin Cities Metro

CITY           SKY/WX    TMP DP  RH WIND       PRES   REMARKS
TWIN CITIES    MOSUNNY   83  63  50 W12       29.80F
ST PAUL        MOSUNNY   82  62  50 NW12G21   29.79F
CRYSTAL        MOSUNNY   83  61  47 W10       29.79F
BLAINE         PTSUNNY   82  64  54 W10G17    29.80F
LAKEVILLE      MOSUNNY   79  64  61 NW9       29.82F
EDEN PRAIRIE   SUNNY     82  63  52 W10       29.81F
SOUTH ST PAUL  MOSUNNY   82  62  50 W12       29.80F
LAKE ELMO      FAIR      82  63  51 NW12      29.82S
$$
MNZ001>005-007-008-013>017-022>024-027-028-292000-
   Northwest Minnesota

CITY           SKY/WX    TMP DP  RH WIND       PRES   REMARKS
BEMIDJI        SUNNY     77  61  58 N9G17     29.84R
HALLOCK        SUNNY     79  63  57 N12       29.86S
ROSEAU         SUNNY     79  63  57 N12       29.85R
WARROAD        PTSUNNY   73  64  73 E6        29.85R
THIEF RVR FALL SUNNY     79  61  53 N9        29.86R
CROOKSTON      SUNNY     75  64  69 N9        29.86S
FOSSTON        SUNNY     77  64  65 N7        29.86R
DETROIT LAKES  SUNNY     77  63  61 NW9       29.87S
MOORHEAD       SUNNY     75  64  69 NW9       29.86S
PARK RAPIDS    SUNNY     80  61  52 NW10      29.83R
MAHNOMEN       FAIR      76  62  61 N9        29.85S
$$
MNZ006-009>011-018-025>026-292000-
   North Central Minnesota

CITY           SKY/WX    TMP DP  RH WIND       PRES   REMARKS
BAUDETTE       SUNNY     75  59  57 NW14      29.83R
FLAG ISLAND    SUNNY     72  57  60 NE15      29.84R
INTL FALLS     PTSUNNY   75  59  57 N12       29.81R
WASKISH        SUNNY     79  59  50 NW10      29.82S
BIG FORK       MOSUNNY  N/A N/A N/A N9        29.80S
LONGVILLE      SUNNY     79  64  61 NW8       29.80F
GRAND RAPIDS   MOSUNNY   77  61  57 N9        29.79S
CRANE LAKE     MOSUNNY   72  59  64 N7        29.81R
COOK           MOSUNNY   72  61  68 NW5       29.79S
WALKER         FAIR      78  63  60 N7        29.81S
$$
MNZ012-019>021-037-292000-
   Northeast Minnesota

CITY           SKY/WX    TMP DP  RH WIND       PRES   REMARKS
DULUTH         PTSUNNY   72  61  68 N3        29.78S
ELY            MOSUNNY   72  61  68 N7        29.78S
HIBBING        MOSUNNY   77  60  55 NW12      29.78F
EVELETH        MOSUNNY   72  59  64 NW6       29.79S
DULUTH HARBOR  PTSUNNY   66  63  88 S9        29.76F
GRAND MARAIS     N/A     60  58  92 SW3       29.74S
G MARAIS ARPRT CLOUDY    64  57  77 CALM      29.78S
$$
MNZ029>031-032-039>041-046>048-054>057-064-292000-
   West Central Minnesota

CITY           SKY/WX    TMP DP  RH WIND       PRES   REMARKS
FERGUS FALLS   SUNNY     75  64  69 NW9       29.85F
WHEATON        SUNNY     75  63  64 W12       29.88F
MORRIS         SUNNY     79  63  57 NW9       29.86F
ALEXANDRIA     SUNNY     77  64  64 W10       29.87F
ELBOW LAKE     FAIR      75  65  69 NW12G17   29.86F
WADENA         SUNNY     75  63  64 W12       29.84S
GLENWOOD       SUNNY     77  64  65 W12       29.87F
APPLETON       SUNNY     81  63  54 W7        29.86F
BENSON         SUNNY     79  61  53 NW7       29.86F
ORTONVILLE     SUNNY     81  59  47 W8        29.88S
MADISON        SUNNY     81  61  50 W10       29.88F
WILLMAR        FAIR      79  64  61 W14       29.88S
$$
MNZ033>034-036-042>043-049>051-058-059-292000-
   Central Minnesota

CITY           SKY/WX    TMP DP  RH WIND       PRES   REMARKS
ST CLOUD       MOSUNNY   82  63  52 W9        29.82S
SAUK CENTRE    FAIR      78  63  60 W8        29.85S
PAYNESVILLE    SUNNY     76  65  68 SW12      29.85S
AITKIN         MOSUNNY   81  66  61 W6        29.77F
PINE RIVER       N/A     81  63  54 NW10G17   29.83F
BRAINERD       MOSUNNY   80  65  59 W8        29.80F
STAPLES        SUNNY     81  61  50 W9        29.82F
LONG PRAIRIE   FAIR      79  63  57 W9        29.85S
LITTLE FALLS   SUNNY     81  59  47 W9        29.82F
LITCHFIELD     SUNNY     81  64  57 W10       29.85F
BUFFALO        SUNNY     80  60  49 W8        29.83F
MAPLE LAKE     SUNNY     81  65  57 W6        29.83F
$$
MNZ037-044-045-052-053-292000-
   East Central Minnesota

CITY           SKY/WX    TMP DP  RH WIND       PRES   REMARKS
PRINCETON      MOSUNNY   79  63  57 W10       29.83R
MORA           PTSUNNY   75  61  60 W12       29.81F
CAMBRIDGE      MOSUNNY   81  63  54 W7        29.79S
RUSH CITY      MOSUNNY   78  63  60 W5        29.80S
MOOSE LAKE     PTSUNNY   77  66  69 W8        29.73F
HINCKLEY       FAIR      79  63  57 W7        29.78F
CLOQUET        MOSUNNY   64  63  94 S5        29.78F THUNDER
MCGREGOR       MOSUNNY   79  63  57 W12G20    29.77F
$$
MNZ071>073-080-081-089-090-097-098-292000-
   Southwest Minnesota

CITY           SKY/WX    TMP DP  RH WIND       PRES   REMARKS
MONTEVIDEO     SUNNY     81  66  61 N10       29.88F
GRANITE FALLS  SUNNY     78  65  62 W9        29.89F
CANBY          SUNNY     78  60  53 W10       29.91S
MARSHALL       SUNNY     79  61  53 NW15      29.90S
REDWOOD FALLS  SUNNY     79  65  62 NW9       29.87F
OLIVIA         SUNNY     73  63  68 W10       29.86F
PIPESTONE      SUNNY     79  57  47 N13       29.94S
WINDOM         SUNNY     79  61  53 NW13      29.90F
WORTHINGTON    SUNNY     79  57  47 NW15      29.92F
JACKSON        SUNNY     81  61  50 NW14G21   29.91F
TRACY          SUNNY     81  63  55 NW12      29.91S
SLAYTON        SUNNY     80  59  48 W6        29.93F
$$
MNZ065>067-074>077-082>085-091>093-292000-
   South Central Minnesota

CITY           SKY/WX    TMP DP  RH WIND       PRES   REMARKS
MANKATO        MOSUNNY   81  64  57 W9        29.85F
NEW ULM        SUNNY     79  64  61 NW12      29.86S
ST JAMES       SUNNY     81  66  61 W12       29.88S
FAIRMONT       SUNNY     81  59  47 NW14G20   29.88F
GLENCOE        HAZE      82  66  58 W10       29.83F VSB 1
FARIBAULT      MOSUNNY   81  64  57 NW8       29.84F
OWATONNA       SUNNY     81  63  54 NW10      29.84F
WASECA         MOSUNNY   79  64  61 NW10G17   29.86F
ALBERT LEA     SUNNY     79  63  57 NW7       29.86F
$$
MNZ078>079-086>088-094>096-292000-
   Southeast Minnesota

CITY           SKY/WX    TMP DP  RH WIND       PRES   REMARKS
ROCHESTER      PTSUNNY   80  64  58 NW15      29.84F
RED WING       SUNNY     82  61  47 NW10      29.79S
STANTON        MOSUNNY   81  64  57 NW9       29.81F
DODGE CENTER   MOSUNNY   79  63  57 NW14G20   29.85F
WINONA         SUNNY     79  64  61 NE5       29.81F
AUSTIN         PTSUNNY   79  64  61 NW9G17    29.85S
PRESTON        MOSUNNY   77  62  59 NW9       29.84F
$$
ABBREVIATIONS USED IN REMARKS
   TC - TEMPERATURES IN CELSIUS
  WCI - WIND CHILL INDEX
   HX - HEAT INDEX
  VSB - VISIBILITY
$$


USA.gov is the U.S. government's official web portal to all federal, state and local government web resources and services.